MKU69 PHNL-PHLI

Flight info

Callsign MKU69
Flight time 0h 24m
Altitude 16000
Route KEOLA3 LIH
Aircraft DH8D/M-SDE2E3FGRY/H

Departure

Time 2026-04-22 22:25
Airport Daniel K. Inouye International Airport (PHNL)

Arrival

Time 2026-04-22 22:50
Airport Lihue Airport (PHLI)
Time Latitude Longitude Altitude Speed Heading
2026-04-22 21:32 21.33345 -157.92465 31 ft 0 kts 99°
2026-04-22 22:10 21.33345 -157.92464 31 ft 0 kts 99°
2026-04-22 22:10 21.33345 -157.92465 31 ft 0 kts 99°
2026-04-22 22:11 21.33347 -157.92480 30 ft 2 kts 99°
2026-04-22 22:11 21.33349 -157.92496 30 ft 2 kts 99°
2026-04-22 22:11 21.33352 -157.92511 31 ft 2 kts 99°
2026-04-22 22:12 21.33354 -157.92526 31 ft 2 kts 99°
2026-04-22 22:12 21.33358 -157.92541 31 ft 2 kts 122°
2026-04-22 22:12 21.33368 -157.92552 31 ft 2 kts 149°
2026-04-22 22:12 21.33382 -157.92557 31 ft 2 kts 177°
2026-04-22 22:13 21.33390 -157.92557 31 ft 0 kts 188°
2026-04-22 22:18 21.33356 -157.92561 30 ft 7 kts 188°
2026-04-22 22:18 21.33310 -157.92569 30 ft 6 kts 187°
2026-04-22 22:18 21.33270 -157.92574 30 ft 5 kts 187°
2026-04-22 22:18 21.33238 -157.92578 30 ft 4 kts 187°
2026-04-22 22:19 21.33205 -157.92583 30 ft 5 kts 186°
2026-04-22 22:19 21.33171 -157.92590 30 ft 5 kts 206°
2026-04-22 22:19 21.33150 -157.92607 30 ft 6 kts 225°
2026-04-22 22:19 21.33124 -157.92635 30 ft 7 kts 225°
2026-04-22 22:20 21.33071 -157.92693 30 ft 9 kts 225°
2026-04-22 22:20 21.33036 -157.92731 30 ft 9 kts 225°
2026-04-22 22:20 21.32993 -157.92776 30 ft 8 kts 224°
2026-04-22 22:20 21.32949 -157.92822 30 ft 8 kts 225°
2026-04-22 22:21 21.32907 -157.92866 30 ft 8 kts 224°
2026-04-22 22:21 21.32860 -157.92896 30 ft 7 kts 191°
2026-04-22 22:21 21.32815 -157.92892 30 ft 7 kts 179°
2026-04-22 22:21 21.32746 -157.92894 30 ft 9 kts 180°
2026-04-22 22:22 21.32686 -157.92894 30 ft 7 kts 179°
2026-04-22 22:22 21.32639 -157.92894 30 ft 5 kts 181°
2026-04-22 22:22 21.32604 -157.92894 30 ft 4 kts 181°
2026-04-22 22:22 21.32566 -157.92896 30 ft 9 kts 181°
2026-04-22 22:23 21.32531 -157.92888 30 ft 4 kts 136°
2026-04-22 22:23 21.32524 -157.92865 30 ft 2 kts 89°
2026-04-22 22:23 21.32524 -157.92860 30 ft 0 kts 89°
2026-04-22 22:24 21.32524 -157.92680 30 ft 68 kts 90°
2026-04-22 22:25 21.32524 -157.91869 42 ft 141 kts 93°
2026-04-22 22:25 21.32490 -157.90807 482 ft 153 kts 100°
2026-04-22 22:25 21.31921 -157.89784 944 ft 172 kts 139°
2026-04-22 22:25 21.30954 -157.88976 1469 ft 185 kts 140°
2026-04-22 22:26 21.29939 -157.88115 2067 ft 193 kts 140°
2026-04-22 22:26 21.28869 -157.87241 2826 ft 194 kts 145°
2026-04-22 22:26 21.27631 -157.86855 3524 ft 197 kts 182°
2026-04-22 22:26 21.26371 -157.87411 4169 ft 201 kts 224°
2026-04-22 22:27 21.25729 -157.88626 4803 ft 200 kts 262°
2026-04-22 22:27 21.25658 -157.90103 5478 ft 201 kts 271°
2026-04-22 22:27 21.25620 -157.91588 6230 ft 201 kts 270°
2026-04-22 22:27 21.25584 -157.93053 6919 ft 201 kts 270°
2026-04-22 22:28 21.25754 -157.94537 7529 ft 203 kts 290°
2026-04-22 22:28 21.26268 -157.95905 8150 ft 205 kts 294°
2026-04-22 22:28 21.26809 -157.97296 8729 ft 207 kts 294°
2026-04-22 22:28 21.27358 -157.98718 9331 ft 209 kts 294°
2026-04-22 22:29 21.27902 -158.00140 9907 ft 210 kts 294°
2026-04-22 22:29 21.28459 -158.01604 10437 ft 215 kts 294°
2026-04-22 22:29 21.29013 -158.03072 11016 ft 216 kts 294°
2026-04-22 22:29 21.29576 -158.04564 11533 ft 221 kts 294°
2026-04-22 22:30 21.30147 -158.06085 12108 ft 224 kts 295°
2026-04-22 22:30 21.30721 -158.07617 12683 ft 225 kts 295°
2026-04-22 22:30 21.31307 -158.09183 13239 ft 230 kts 295°
2026-04-22 22:30 21.31899 -158.10768 13899 ft 230 kts 295°
2026-04-22 22:31 21.32484 -158.12340 14534 ft 231 kts 295°
2026-04-22 22:31 21.33082 -158.13947 15202 ft 232 kts 295°
2026-04-22 22:31 21.33673 -158.15530 15697 ft 240 kts 295°
2026-04-22 22:31 21.34327 -158.17276 15899 ft 265 kts 295°
2026-04-22 22:32 21.35043 -158.19192 15957 ft 291 kts 295°
2026-04-22 22:32 21.35792 -158.21222 15950 ft 298 kts 294°
2026-04-22 22:32 21.36561 -158.23308 15948 ft 308 kts 294°
2026-04-22 22:32 21.37353 -158.25456 15986 ft 313 kts 294°
2026-04-22 22:33 21.38164 -158.27652 15956 ft 319 kts 294°
2026-04-22 22:33 21.38968 -158.29828 15943 ft 325 kts 294°
2026-04-22 22:33 21.39773 -158.32008 15891 ft 326 kts 294°
2026-04-22 22:33 21.40624 -158.34311 15946 ft 330 kts 294°
2026-04-22 22:34 21.41477 -158.36620 15935 ft 330 kts 294°
2026-04-22 22:34 21.42316 -158.38892 15926 ft 332 kts 294°
2026-04-22 22:34 21.43169 -158.41199 15925 ft 335 kts 294°
2026-04-22 22:34 21.44027 -158.43521 15919 ft 336 kts 294°
2026-04-22 22:35 21.44896 -158.45869 15920 ft 338 kts 294°
2026-04-22 22:35 21.45762 -158.48216 15916 ft 340 kts 294°
2026-04-22 22:35 21.46625 -158.50554 15912 ft 337 kts 294°
2026-04-22 22:35 21.47480 -158.52876 15911 ft 333 kts 294°
2026-04-22 22:36 21.48315 -158.55147 15908 ft 325 kts 294°
2026-04-22 22:36 21.49148 -158.57413 15778 ft 328 kts 294°
2026-04-22 22:36 21.49974 -158.59651 15491 ft 335 kts 294°
2026-04-22 22:36 21.50837 -158.61992 15132 ft 340 kts 294°
2026-04-22 22:37 21.51719 -158.64384 14747 ft 344 kts 294°
2026-04-22 22:37 21.52467 -158.66422 14406 ft 338 kts 293°
2026-04-22 22:37 21.53328 -158.68773 14023 ft 332 kts 293°
2026-04-22 22:37 21.54192 -158.71132 13645 ft 329 kts 293°
2026-04-22 22:38 21.54985 -158.73291 13294 ft 326 kts 293°
2026-04-22 22:38 21.55788 -158.75482 12939 ft 321 kts 293°
2026-04-22 22:38 21.56611 -158.77730 12582 ft 321 kts 293°
2026-04-22 22:38 21.57375 -158.79811 12241 ft 318 kts 293°
2026-04-22 22:39 21.58193 -158.82045 11879 ft 317 kts 292°
2026-04-22 22:39 21.58988 -158.84213 11527 ft 316 kts 293°
2026-04-22 22:39 21.59727 -158.86232 11194 ft 310 kts 292°
2026-04-22 22:39 21.60520 -158.88402 10843 ft 305 kts 292°
2026-04-22 22:40 21.61282 -158.90486 10504 ft 300 kts 292°
2026-04-22 22:40 21.62037 -158.92551 10170 ft 296 kts 292°
2026-04-22 22:40 21.62787 -158.94600 9840 ft 294 kts 292°
2026-04-22 22:40 21.63509 -158.96578 9516 ft 290 kts 292°
2026-04-22 22:41 21.64239 -158.98573 9194 ft 287 kts 292°
2026-04-22 22:41 21.64959 -159.00545 8873 ft 285 kts 292°
2026-04-22 22:41 21.65675 -159.02508 8552 ft 277 kts 292°
2026-04-22 22:41 21.66359 -159.04387 8250 ft 273 kts 292°
2026-04-22 22:42 21.67048 -159.06279 7943 ft 269 kts 292°
2026-04-22 22:42 21.67719 -159.08119 7640 ft 263 kts 292°
2026-04-22 22:42 21.68387 -159.09953 7345 ft 262 kts 292°
2026-04-22 22:42 21.69031 -159.11722 7057 ft 258 kts 292°
2026-04-22 22:43 21.69681 -159.13506 6769 ft 257 kts 293°
2026-04-22 22:43 21.70328 -159.15282 6489 ft 255 kts 293°
2026-04-22 22:43 21.70967 -159.17040 6205 ft 252 kts 293°
2026-04-22 22:43 21.71609 -159.18803 5921 ft 252 kts 293°
2026-04-22 22:44 21.72234 -159.20523 5636 ft 249 kts 293°
2026-04-22 22:44 21.72860 -159.22247 5354 ft 247 kts 293°
2026-04-22 22:44 21.73487 -159.23969 5075 ft 246 kts 293°
2026-04-22 22:44 21.74173 -159.25606 4814 ft 243 kts 301°
2026-04-22 22:45 21.75067 -159.27145 4540 ft 243 kts 304°
2026-04-22 22:45 21.75977 -159.28661 4266 ft 243 kts 304°
2026-04-22 22:45 21.76872 -159.30159 3998 ft 240 kts 304°
2026-04-22 22:45 21.77768 -159.31665 3729 ft 240 kts 304°
2026-04-22 22:46 21.78841 -159.33054 3363 ft 240 kts 326°
2026-04-22 22:46 21.80382 -159.33568 3106 ft 234 kts 358°
2026-04-22 22:46 21.82033 -159.33624 2743 ft 238 kts 359°
2026-04-22 22:46 21.83609 -159.33699 2496 ft 227 kts
2026-04-22 22:47 21.85155 -159.33635 2217 ft 214 kts
2026-04-22 22:47 21.86636 -159.33598 2048 ft 216 kts
2026-04-22 22:47 21.88087 -159.33592 1729 ft 196 kts
2026-04-22 22:47 21.89360 -159.33598 1505 ft 175 kts
2026-04-22 22:48 21.90531 -159.33594 1282 ft 161 kts
2026-04-22 22:48 21.91622 -159.33591 1074 ft 153 kts
2026-04-22 22:48 21.92670 -159.33588 888 ft 148 kts
2026-04-22 22:48 21.93682 -159.33583 714 ft 148 kts
2026-04-22 22:49 21.94716 -159.33583 547 ft 146 kts
2026-04-22 22:49 21.95730 -159.33585 352 ft 143 kts
2026-04-22 22:49 21.96721 -159.33589 187 ft 136 kts
2026-04-22 22:49 21.97480 -159.33589 180 ft 84 kts 360°
2026-04-22 22:50 21.97819 -159.33637 181 ft 24 kts 335°
2026-04-22 22:50 21.97874 -159.33667 181 ft 3 kts 328°
2026-04-22 22:50 21.97880 -159.33672 181 ft 5 kts 329°
2026-04-22 22:50 21.97921 -159.33697 181 ft 7 kts 330°
2026-04-22 22:51 21.97943 -159.33742 181 ft 7 kts 270°
2026-04-22 22:51 21.97941 -159.33806 181 ft 10 kts 269°
2026-04-22 22:51 21.97941 -159.33887 181 ft 10 kts 270°
2026-04-22 22:51 21.97941 -159.33954 182 ft 10 kts 270°
2026-04-22 22:52 21.97941 -159.34038 182 ft 10 kts 270°
2026-04-22 22:52 21.97942 -159.34135 182 ft 14 kts 270°
2026-04-22 22:52 21.97940 -159.34256 183 ft 16 kts 269°
2026-04-22 22:52 21.97928 -159.34367 183 ft 12 kts 236°
2026-04-22 22:53 21.97854 -159.34448 183 ft 18 kts 225°
2026-04-22 22:53 21.97777 -159.34531 183 ft 13 kts 225°
2026-04-22 22:53 21.97739 -159.34596 183 ft 10 kts 276°
2026-04-22 22:53 21.97778 -159.34634 184 ft 6 kts 309°
2026-04-22 22:54 21.97806 -159.34671 184 ft 6 kts 344°
2026-04-22 22:54 21.97843 -159.34654 184 ft 5 kts 31°
2026-04-22 22:54 21.97874 -159.34642 184 ft 4 kts 352°
2026-04-22 22:54 21.97900 -159.34662 184 ft 5 kts 317°
2026-04-22 22:55 21.97918 -159.34682 184 ft 0 kts 316°